Temp
4 3 3 3 3 3 2 2 2 2 2 2 2 1 1 1 1 1 0 0 -0 -0 -0 -1 -1 -1 -1 -1 -2 -2 -2 -3 -3 -3 -4 -4 -4 -4 -5 -5 -5 -5 -5 -6 -6 -6 -6 -7 -7 -7 -7 -7 -7 -7 -7 -7 -7 -8 -8 -8 -8 -8 -9 -9 -9 -9 -9 -9 -9
4 4 3 3 3 2 2 2 2 2 2 2 2 1 1 1 1 1 0 0 -0 -0 -0 -1 -1 -1 -1 -1 -2 -2 -2 -3 -3 -3 -4 -4 -4 -4 -5 -5 -5 -5 -5 -6 -6 -6 -6 -7 -7 -7 -7 -7 -7 -7 -7 -7 -7 -8 -8 -8 -8 -8 -8 -9 -8 -8 -9 -9 -9
4 3 3 3 3 2 2 2 2 2 2 2 2 1 1 1 1 0 0 0 -0 -0 -0 -1 -1 -1 -1 -1 -2 -2 -2 -3 -3 -3 -3 -4 -4 -4 -5 -5 -5 -5 -5 -6 -6 -6 -6 -7 -7 -7 -7 -7 -7 -7 -7 -7 -7 -8 -8 -8 -8 -8 -8 -8 -8 -8 -8 -8 -8
4 3 3 3 3 2 2 2 2 2 2 2 1 1 1 1 1 0 0 0 -0 -0 -0 -1 -1 -1 -1 -1 -2 -2 -2 -3 -3 -3 -3 -4 -4 -4 -5 -5 -5 -5 -5 -6 -6 -6 -6 -7 -7 -7 -7 -7 -7 -7 -7 -7 -7 -8 -8 -8 -8 -8 -8 -8 -8 -8 -8 -8 -8
4 3 3 3 3 2 2 2 2 2 2 1 1 1 1 1 1 0 0 0 -0 -0 -1 -1 -1 -1 -1 -1 -2 -2 -2 -3 -3 -3 -3 -4 -4 -4 -5 -5 -5 -5 -5 -6 -6 -6 -6 -7 -7 -7 -7 -7 -7 -7 -7 -7 -7 -7 -7 -7 -7 -7 -8 -8 -8 -8 -8 -8 -8
4 3 3 3 3 2 2 2 2 2 2 1 1 1 1 1 1 0 0 0 -0 -1 -1 -1 -1 -1 -1 -1 -2 -2 -2 -3 -3 -3 -4 -4 -4 -4 -5 -5 -5 -5 -5 -6 -6 -6 -6 -6 -7 -7 -7 -7 -7 -7 -7 -7 -7 -7 -7 -7 -7 -7 -7 -8 -8 -8 -8 -8 -8
4 3 3 3 2 2 2 2 2 2 1 1 1 1 1 1 1 0 0 -0 -0 -1 -1 -1 -1 -1 -1 -1 -2 -2 -2 -3 -3 -3 -4 -4 -4 -4 -5 -5 -5 -5 -5 -6 -6 -6 -6 -6 -7 -7 -7 -7 -7 -7 -7 -7 -7 -7 -7 -7 -7 -7 -7 -7 -8 -8 -8 -8 -8
4 3 3 3 2 2 2 2 2 2 1 1 1 1 1 1 1 0 0 -0 -0 -0 -1 -1 -1 -1 -1 -1 -1 -2 -2 -2 -3 -3 -4 -4 -4 -4 -5 -5 -5 -5 -5 -6 -6 -6 -6 -6 -6 -6 -7 -7 -7 -7 -7 -7 -7 -7 -7 -7 -7 -7 -7 -7 -7 -8 -8 -8 -8
3 3 3 2 2 2 2 2 2 1 1 1 1 1 1 1 0 0 0 -0 -0 -1 -1 -1 -1 -1 -1 -1 -1 -2 -2 -3 -3 -3 -4 -4 -4 -4 -5 -5 -5 -5 -5 -6 -6 -6 -6 -6 -6 -6 -7 -7 -7 -7 -7 -7 -7 -7 -7 -7 -7 -7 -7 -7 -7 -8 -8 -8 -8
3 3 3 2 2 2 2 2 1 1 1 1 1 1 1 1 0 0 0 -0 -0 -1 -1 -1 -1 -1 -1 -1 -1 -2 -2 -3 -3 -3 -4 -4 -4 -4 -5 -5 -5 -5 -5 -6 -6 -6 -6 -6 -6 -6 -7 -7 -7 -7 -7 -7 -7 -7 -7 -7 -7 -7 -7 -7 -7 -7 -8 -8 -8
4 3 3 2 2 2 2 1 1 1 1 1 1 1 1 1 0 0 0 -0 -1 -1 -1 -1 -1 -1 -1 -1 -2 -2 -2 -3 -3 -3 -4 -4 -4 -4 -5 -5 -5 -5 -5 -6 -6 -6 -6 -6 -6 -6 -7 -7 -7 -7 -7 -7 -7 -7 -7 -7 -7 -7 -7 -7 -7 -7 -8 -8 -8
4 3 2 2 2 2 1 1 1 1 1 1 1 1 1 1 1 0 -0 -0 -0 -0 -1 -1 -1 -1 -1 -1 -2 -2 -2 -3 -3 -3 -3 -4 -4 -4 -5 -5 -5 -5 -5 -6 -6 -6 -6 -6 -6 -7 -7 -7 -7 -7 -7 -7 -7 -7 -7 -7 -7 -7 -7 -7 -7 -7 -8 -8 -8
4 3 2 2 2 1 1 1 1 1 1 1 1 1 1 1 0 0 -0 -0 -0 -0 -1 -1 -1 -1 -1 -1 -2 -2 -3 -3 -3 -3 -3 -4 -4 -4 -4 -5 -5 -5 -5 -6 -6 -6 -6 -6 -7 -7 -7 -7 -7 -7 -7 -7 -7 -7 -7 -7 -7 -7 -7 -7 -7 -8 -8 -8 -8
4 3 2 2 2 1 1 1 1 1 1 2 2 1 1 1 0 -0 -0 -0 -0 -1 -1 -1 -1 -1 -1 -2 -2 -2 -3 -3 -3 -3 -3 -4 -4 -4 -4 -5 -5 -5 -5 -6 -6 -6 -6 -6 -7 -7 -7 -7 -7 -7 -7 -7 -7 -7 -7 -7 -7 -7 -7 -7 -7 -8 -8 -8 -8
3 3 2 2 1 1 1 1 1 1 2 2 2 1 1 1 0 -0 -0 -0 -1 -1 -1 -1 -1 -1 -1 -2 -2 -2 -3 -3 -3 -3 -3 -3 -4 -4 -4 -5 -5 -5 -5 -6 -6 -6 -6 -6 -7 -7 -7 -7 -7 -7 -7 -7 -7 -7 -7 -7 -7 -7 -7 -7 -8 -8 -8 -8 -8
3 3 2 2 1 1 1 1 1 1 2 2 2 1 1 1 0 -0 -0 -1 -1 -1 -1 -1 -1 -1 -2 -2 -2 -2 -3 -3 -3 -3 -3 -3 -4 -4 -4 -5 -5 -5 -5 -5 -6 -6 -6 -6 -6 -7 -7 -7 -7 -7 -7 -7 -7 -7 -7 -7 -7 -7 -7 -7 -8 -8 -8 -8 -8
3 3 2 2 2 1 1 1 1 2 2 2 2 1 1 1 0 -0 -0 -1 -1 -1 -1 -1 -1 -1 -2 -2 -2 -2 -3 -3 -3 -3 -3 -3 -4 -4 -4 -5 -5 -5 -5 -5 -6 -6 -6 -6 -6 -6 -7 -7 -7 -7 -7 -7 -7 -7 -7 -7 -7 -7 -7 -7 -8 -8 -8 -8 -8
4 3 2 2 2 1 1 1 1 2 2 2 2 1 1 1 0 -0 -1 -1 -1 -1 -1 -1 -1 -1 -2 -2 -2 -2 -3 -3 -3 -3 -3 -3 -4 -4 -4 -5 -5 -5 -5 -5 -5 -5 -6 -6 -6 -6 -6 -6 -7 -7 -7 -7 -7 -7 -7 -7 -7 -7 -7 -7 -8 -8 -8 -8 -8
4 3 3 2 2 2 1 1 1 2 2 2 2 1 1 1 0 -0 -1 -1 -1 -1 -1 -1 -1 -1 -2 -2 -2 -2 -3 -3 -3 -3 -3 -4 -4 -4 -4 -5 -5 -5 -5 -5 -5 -5 -6 -6 -6 -6 -6 -6 -6 -6 -7 -7 -7 -7 -7 -7 -7 -7 -7 -7 -8 -8 -8 -8 -8
4 3 3 3 2 2 2 1 1 2 2 2 2 1 1 0 -0 -0 -1 -1 -1 -1 -1 -1 -1 -1 -2 -2 -2 -2 -3 -3 -3 -3 -3 -4 -4 -4 -4 -5 -5 -5 -5 -5 -5 -5 -5 -6 -6 -6 -6 -6 -6 -6 -6 -7 -7 -6 -6 -6 -7 -7 -7 -7 -8 -8 -8 -8 -8
4 4 3 3 2 2 2 2 1 2 2 2 1 1 1 0 -0 -0 -1 -1 -1 -1 -1 -1 -1 -1 -1 -2 -2 -2 -3 -3 -3 -3 -3 -3 -4 -4 -4 -5 -5 -5 -5 -5 -5 -5 -5 -6 -6 -6 -6 -6 -6 -6 -6 -6 -6 -6 -6 -6 -7 -7 -7 -8 -8 -8 -8 -8 -8
4 4 3 3 2 2 2 1 1 1 1 1 1 1 1 0 -0 -0 -1 -1 -1 -1 -1 -1 -1 -1 -1 -2 -2 -2 -3 -3 -3 -3 -3 -3 -4 -4 -4 -5 -5 -5 -5 -5 -5 -5 -5 -5 -6 -6 -6 -6 -6 -6 -6 -6 -6 -6 -6 -6 -7 -7 -7 -8 -8 -8 -8 -8 -8
5 4 3 3 2 2 2 1 1 1 1 1 1 1 0 0 -0 -0 -1 -1 -1 -1 -1 -1 -1 -1 -1 -2 -2 -2 -3 -3 -3 -3 -3 -3 -4 -4 -4 -5 -5 -5 -5 -5 -5 -5 -5 -5 -6 -6 -6 -6 -6 -6 -6 -6 -6 -6 -6 -7 -7 -7 -8 -8 -8 -8 -8 -8 -8
5 4 3 3 2 2 2 1 1 1 1 1 1 1 0 0 -0 -0 -1 -1 -1 -1 -1 -1 -1 -1 -2 -2 -2 -2 -2 -3 -3 -3 -3 -3 -4 -4 -4 -4 -4 -4 -4 -5 -5 -5 -5 -5 -6 -6 -6 -6 -6 -6 -6 -6 -6 -6 -7 -7 -7 -7 -7 -7 -7 -8 -8 -8 -8
5 4 3 3 2 2 2 1 1 1 1 1 1 1 0 0 -0 -0 -0 -1 -1 -1 -1 -1 -1 -1 -2 -2 -2 -2 -2 -2 -3 -3 -3 -3 -4 -4 -4 -4 -4 -4 -4 -5 -5 -5 -5 -6 -6 -6 -6 -7 -7 -7 -7 -7 -7 -7 -7 -7 -7 -7 -7 -7 -7 -7 -8 -8 -8
5 4 3 3 2 2 2 1 1 1 1 1 1 1 0 0 -0 -0 -0 -1 -1 -1 -1 -1 -1 -1 -2 -2 -2 -2 -2 -2 -2 -3 -3 -3 -4 -4 -4 -4 -4 -4 -4 -5 -5 -5 -5 -6 -6 -6 -7 -7 -8 -8 -7 -7 -7 -7 -7 -7 -7 -7 -7 -7 -7 -7 -8 -8 -7
5 4 3 3 2 2 2 1 1 1 1 1 1 1 0 0 -0 -0 -0 -1 -1 -1 -1 -1 -1 -1 -2 -2 -2 -2 -2 -2 -3 -3 -3 -3 -4 -4 -4 -4 -4 -4 -4 -5 -5 -5 -5 -5 -6 -6 -7 -8 -8 -7 -7 -7 -7 -7 -7 -6 -6 -6 -7 -7 -7 -7 -7 -7 -7
5 4 3 3 2 2 2 1 1 1 1 1 1 1 0 0 -0 -0 -0 -1 -1 -1 -1 -1 -1 -1 -2 -2 -2 -2 -2 -2 -3 -3 -3 -3 -3 -4 -4 -4 -4 -4 -4 -4 -5 -5 -5 -5 -6 -6 -7 -7 -7 -7 -7 -7 -7 -7 -7 -7 -7 -7 -7 -7 -7 -7 -7 -7 -7
5 4 4 3 2 2 2 1 1 1 1 1 1 1 0 0 -0 -0 -0 -1 -1 -1 -1 -1 -1 -1 -2 -2 -2 -2 -2 -2 -3 -3 -3 -3 -3 -3 -4 -4 -4 -4 -4 -4 -5 -5 -5 -5 -5 -6 -6 -7 -7 -8 -8 -8 -7 -7 -7 -7 -7 -7 -7 -7 -7 -7 -8 -8 -8
5 4 4 3 3 2 2 1 1 1 1 1 1 0 0 0 -0 -0 -0 -1 -1 -1 -1 -1 -1 -1 -1 -1 -2 -2 -2 -2 -3 -3 -3 -3 -3 -3 -4 -4 -4 -4 -4 -4 -4 -5 -5 -5 -5 -6 -6 -7 -7 -8 -8 -8 -7 -7 -7 -7 -7 -7 -7 -7 -7 -8 -8 -8 -8
5 4 4 3 3 2 2 1 1 1 1 1 0 0 0 0 0 -0 -0 -1 -1 -1 -1 -1 -1 -1 -1 -1 -2 -2 -2 -2 -3 -3 -3 -3 -3 -3 -4 -4 -4 -4 -4 -4 -4 -5 -5 -5 -5 -6 -6 -7 -7 -8 -8 -8 -8 -7 -7 -7 -7 -7 -7 -7 -7 -8 -8 -8 -8
5 4 4 3 3 2 2 1 1 1 1 0 0 0 0 0 0 -0 -0 -1 -1 -1 -1 -1 -1 -1 -1 -1 -2 -2 -2 -2 -3 -3 -3 -3 -3 -4 -4 -4 -4 -4 -4 -4 -4 -5 -5 -5 -5 -5 -6 -6 -7 -8 -8 -8 -8 -8 -7 -7 -7 -7 -7 -7 -8 -8 -8 -8 -8
5 5 4 3 3 2 2 1 1 1 1 0 0 0 0 0 0 -0 -0 -1 -1 -1 -1 -1 -1 -1 -1 -1 -2 -2 -2 -2 -2 -3 -3 -3 -4 -4 -4 -3 -3 -3 -4 -4 -4 -5 -5 -5 -5 -5 -6 -6 -7 -8 -8 -8 -8 -7 -7 -7 -7 -7 -7 -8 -8 -8 -8 -8 -8
6 5 4 3 3 2 2 1 1 1 0 0 0 0 0 0 0 -0 -0 -1 -1 -1 -1 -1 -1 -1 -1 -2 -2 -2 -2 -2 -2 -3 -3 -3 -4 -4 -3 -3 -3 -3 -4 -4 -4 -4 -5 -5 -5 -5 -6 -6 -7 -7 -7 -7 -7 -7 -7 -7 -7 -7 -7 -8 -8 -8 -8 -8 -8
6 5 4 3 3 2 2 1 1 1 0 0 0 0 0 0 0 -0 -0 -1 -1 -1 -1 -1 -2 -2 -2 -2 -2 -2 -2 -2 -2 -3 -3 -3 -4 -4 -3 -3 -3 -3 -4 -4 -4 -4 -5 -5 -5 -5 -6 -6 -7 -7 -7 -7 -7 -7 -7 -7 -7 -7 -8 -8 -8 -8 -8 -8 -8
6 5 4 4 3 2 2 1 1 1 0 0 0 0 0 0 0 -0 -0 -1 -1 -1 -2 -2 -2 -2 -2 -2 -2 -2 -2 -2 -2 -3 -3 -3 -4 -3 -3 -3 -3 -3 -4 -4 -4 -4 -4 -5 -5 -5 -6 -6 -6 -7 -7 -7 -7 -7 -7 -7 -7 -7 -8 -8 -8 -8 -8 -8 -8
6 5 5 4 3 2 2 1 1 1 0 0 0 0 0 0 0 -0 -0 -1 -1 -1 -2 -2 -2 -2 -2 -2 -2 -2 -2 -2 -3 -3 -3 -3 -3 -3 -3 -3 -3 -3 -4 -4 -4 -4 -4 -5 -5 -5 -6 -6 -6 -7 -7 -7 -7 -7 -7 -7 -7 -8 -8 -8 -8 -8 -8 -8 -8
6 5 5 4 3 2 2 1 1 1 1 1 1 1 0 0 0 -0 -1 -1 -1 -2 -2 -2 -2 -2 -2 -3 -3 -3 -3 -3 -3 -3 -3 -3 -3 -3 -3 -3 -3 -3 -3 -4 -4 -4 -4 -5 -5 -5 -6 -6 -6 -7 -7 -7 -7 -7 -7 -7 -8 -8 -8 -8 -8 -8 -8 -8 -8
6 5 4 4 3 2 2 1 1 1 1 1 1 1 0 0 0 -0 -1 -1 -1 -2 -3 -3 -3 -3 -3 -3 -3 -3 -3 -3 -3 -3 -3 -3 -3 -3 -3 -3 -3 -3 -3 -3 -4 -4 -4 -4 -5 -5 -6 -6 -7 -7 -7 -7 -7 -8 -8 -8 -8 -8 -8 -8 -8 -8 -8 -8 -8
5 5 4 4 3 2 2 2 1 1 1 1 1 1 1 0 0 -0 -1 -1 -2 -2 -3 -3 -3 -3 -3 -3 -3 -3 -3 -3 -3 -3 -3 -3 -3 -3 -4 -3 -3 -3 -3 -3 -3 -4 -4 -4 -5 -5 -6 -6 -7 -7 -7 -8 -8 -8 -8 -8 -8 -8 -8 -8 -8 -8 -8 -8 -8
5 4 4 3 3 2 2 2 1 1 1 1 1 1 1 0 -0 -0 -1 -2 -2 -3 -3 -3 -3 -3 -3 -3 -3 -3 -3 -3 -3 -3 -3 -3 -3 -3 -4 -3 -3 -3 -3 -3 -3 -3 -4 -4 -5 -5 -6 -6 -7 -7 -7 -8 -8 -8 -8 -8 -8 -8 -8 -8 -8 -8 -8 -8 -8
Height
1497 1497 1498 1498 1499 1499 1499 1500 1500 1501 1501 1501 1501 1501 1501 1501 1501 1501 1501 1501 1500 1500 1499 1499 1498 1498 1497 1497 1496 1495 1495 1494 1494 1493 1492 1491 1491 1490 1489 1488 1488 1487 1486 1485 1484 1483 1482 1481 1480 1479 1478 1477 1476 1475 1474 1474 1473 1472 1471 1470 1469 1468 1466 1465 1464 1463 1462 1461 1460
1494 1495 1495 1496 1496 1497 1497 1497 1498 1498 1498 1499 1499 1499 1499 1499 1499 1499 1499 1498 1498 1498 1498 1497 1496 1496 1495 1495 1494 1494 1493 1493 1492 1491 1491 1490 1489 1488 1487 1487 1486 1485 1484 1483 1482 1481 1480 1479 1478 1477 1476 1475 1474 1473 1473 1472 1471 1470 1469 1468 1467 1466 1464 1463 1462 1461 1460 1459 1458
1492 1493 1493 1493 1493 1494 1494 1495 1495 1496 1496 1497 1497 1497 1497 1497 1497 1497 1497 1497 1496 1496 1495 1495 1494 1494 1493 1493 1492 1492 1491 1491 1490 1489 1489 1488 1487 1486 1485 1485 1484 1483 1482 1481 1480 1479 1478 1478 1476 1475 1474 1473 1473 1472 1471 1470 1470 1468 1467 1466 1465 1464 1463 1461 1460 1459 1458 1457 1456
1489 1490 1490 1490 1491 1491 1492 1493 1493 1494 1494 1495 1495 1495 1495 1495 1494 1495 1494 1494 1494 1493 1493 1493 1492 1492 1491 1491 1490 1490 1489 1489 1488 1488 1487 1486 1485 1485 1484 1483 1482 1481 1481 1480 1479 1478 1477 1476 1474 1473 1473 1472 1471 1470 1469 1468 1468 1467 1466 1464 1463 1462 1460 1459 1458 1457 1456 1454 1453
1486 1487 1487 1488 1488 1489 1490 1491 1491 1492 1492 1493 1493 1493 1492 1492 1492 1493 1492 1492 1492 1492 1491 1491 1490 1490 1489 1489 1488 1488 1487 1487 1486 1485 1485 1484 1483 1483 1482 1481 1480 1480 1479 1478 1477 1476 1475 1474 1473 1472 1471 1470 1469 1468 1468 1467 1466 1465 1464 1463 1461 1460 1459 1457 1456 1455 1454 1453 1451
1483 1484 1485 1486 1486 1487 1488 1488 1489 1490 1490 1490 1490 1490 1490 1490 1490 1490 1490 1490 1490 1489 1489 1488 1488 1488 1487 1487 1486 1486 1485 1485 1484 1483 1483 1482 1482 1481 1480 1479 1478 1478 1477 1476 1475 1474 1473 1472 1471 1470 1469 1468 1468 1467 1466 1465 1464 1463 1462 1461 1460 1458 1457 1455 1454 1453 1452 1450 1449
1481 1482 1483 1483 1484 1485 1485 1486 1487 1487 1488 1488 1487 1487 1488 1488 1488 1488 1488 1488 1488 1487 1487 1486 1486 1486 1485 1485 1484 1484 1483 1483 1482 1482 1481 1480 1480 1479 1478 1478 1477 1476 1475 1474 1473 1472 1471 1470 1469 1468 1468 1467 1466 1465 1464 1463 1462 1461 1460 1459 1458 1457 1455 1454 1453 1451 1450 1448 1447
1479 1480 1480 1481 1482 1483 1483 1484 1484 1485 1485 1485 1485 1485 1485 1486 1486 1486 1486 1486 1485 1485 1485 1484 1484 1483 1483 1483 1482 1482 1481 1481 1480 1480 1479 1478 1478 1477 1476 1476 1475 1474 1473 1472 1471 1470 1469 1468 1468 1467 1466 1465 1464 1463 1463 1462 1461 1459 1458 1457 1456 1455 1454 1453 1451 1450 1448 1447 1445
1476 1477 1478 1478 1479 1480 1481 1481 1482 1482 1482 1482 1483 1483 1483 1484 1484 1484 1483 1483 1483 1483 1483 1482 1482 1481 1481 1480 1480 1480 1479 1479 1478 1478 1477 1477 1476 1475 1474 1473 1473 1472 1471 1470 1470 1469 1468 1467 1466 1465 1464 1463 1462 1461 1461 1460 1458 1458 1456 1455 1454 1453 1452 1451 1450 1448 1446 1445 1443
1473 1474 1475 1476 1477 1477 1478 1478 1479 1479 1479 1480 1480 1481 1481 1481 1481 1481 1481 1481 1481 1481 1480 1480 1480 1479 1479 1478 1478 1478 1477 1477 1476 1476 1475 1474 1474 1473 1472 1472 1471 1470 1469 1468 1468 1467 1466 1465 1464 1463 1463 1462 1461 1459 1459 1458 1457 1456 1454 1453 1452 1451 1450 1449 1448 1447 1445 1443 1441
1470 1472 1473 1473 1474 1475 1475 1476 1476 1476 1477 1477 1478 1478 1478 1479 1479 1479 1479 1479 1479 1478 1478 1478 1478 1477 1477 1476 1476 1476 1475 1475 1474 1473 1473 1473 1472 1471 1470 1469 1469 1468 1467 1467 1466 1465 1464 1463 1462 1461 1461 1460 1459 1458 1457 1456 1455 1454 1453 1452 1451 1449 1448 1447 1446 1445 1443 1442 1439
1468 1469 1470 1471 1472 1472 1473 1473 1473 1473 1474 1474 1475 1476 1476 1476 1477 1477 1477 1477 1476 1476 1476 1476 1476 1475 1475 1474 1474 1473 1473 1473 1472 1472 1471 1470 1470 1469 1468 1468 1467 1466 1465 1465 1464 1463 1462 1461 1460 1459 1459 1458 1457 1456 1455 1454 1453 1452 1451 1450 1449 1448 1446 1445 1444 1443 1442 1440 1438
1465 1466 1467 1468 1469 1469 1469 1470 1470 1471 1471 1472 1473 1473 1474 1474 1475 1475 1474 1474 1474 1474 1474 1474 1473 1473 1473 1472 1472 1472 1471 1471 1470 1470 1469 1468 1468 1467 1466 1466 1465 1464 1463 1463 1462 1461 1460 1459 1459 1458 1457 1456 1455 1454 1453 1453 1451 1450 1449 1448 1447 1446 1445 1443 1443 1441 1439 1438 1436
1463 1463 1464 1465 1466 1466 1466 1467 1467 1468 1469 1469 1470 1471 1472 1472 1473 1473 1472 1472 1472 1472 1472 1472 1471 1471 1471 1470 1470 1470 1469 1469 1468 1468 1467 1466 1466 1465 1464 1463 1463 1462 1462 1461 1460 1459 1458 1458 1457 1456 1455 1454 1453 1453 1452 1451 1450 1448 1447 1446 1445 1444 1443 1442 1441 1439 1437 1435 1433
1459 1460 1461 1462 1463 1463 1463 1464 1464 1465 1466 1467 1468 1469 1469 1470 1470 1470 1470 1470 1470 1470 1470 1469 1469 1469 1469 1468 1468 1468 1468 1467 1466 1466 1465 1464 1464 1463 1463 1462 1461 1460 1460 1459 1458 1458 1457 1456 1455 1454 1453 1452 1451 1451 1450 1449 1448 1447 1446 1445 1443 1442 1441 1440 1438 1437 1435 1433 1432
1456 1457 1458 1459 1459 1460 1460 1461 1462 1463 1464 1465 1466 1467 1467 1468 1468 1468 1468 1468 1468 1468 1468 1468 1467 1467 1467 1467 1466 1466 1465 1465 1464 1464 1463 1463 1462 1461 1461 1460 1459 1458 1458 1457 1457 1456 1455 1454 1453 1452 1451 1450 1449 1448 1448 1447 1446 1445 1444 1443 1442 1441 1439 1438 1436 1435 1433 1432 1430
1453 1454 1455 1456 1456 1457 1458 1458 1459 1460 1462 1463 1464 1464 1465 1466 1466 1466 1466 1466 1466 1466 1466 1466 1466 1465 1465 1465 1464 1464 1463 1463 1463 1462 1461 1461 1460 1459 1459 1458 1458 1457 1456 1455 1454 1454 1453 1452 1452 1451 1449 1448 1448 1447 1446 1445 1444 1443 1442 1441 1440 1439 1438 1436 1434 1433 1431 1430 1428
1450 1451 1452 1453 1453 1454 1455 1456 1457 1458 1459 1460 1462 1462 1463 1463 1464 1464 1464 1464 1464 1464 1464 1464 1464 1463 1463 1463 1462 1462 1462 1461 1460 1460 1459 1459 1458 1458 1457 1456 1456 1455 1454 1453 1453 1452 1451 1450 1449 1449 1448 1447 1446 1445 1444 1443 1442 1441 1440 1440 1438 1437 1436 1434 1433 1431 1429 1428 1426
1447 1448 1448 1449 1450 1451 1453 1454 1455 1456 1457 1458 1459 1460 1461 1461 1462 1462 1462 1462 1462 1462 1462 1462 1462 1461 1461 1461 1460 1460 1459 1459 1458 1458 1458 1457 1456 1455 1455 1454 1454 1453 1452 1452 1451 1450 1449 1448 1448 1447 1446 1445 1444 1443 1442 1441 1440 1439 1439 1438 1437 1435 1433 1432 1431 1429 1428 1426 1423
1444 1445 1445 1447 1448 1449 1450 1452 1453 1454 1455 1456 1457 1458 1458 1459 1459 1459 1459 1459 1460 1460 1460 1459 1459 1459 1459 1459 1458 1458 1458 1457 1456 1456 1455 1455 1454 1454 1453 1453 1452 1451 1450 1450 1449 1448 1447 1446 1446 1445 1444 1443 1442 1441 1440 1439 1438 1438 1437 1436 1434 1433 1431 1430 1428 1427 1425 1423 1422
1441 1442 1443 1444 1446 1447 1448 1449 1451 1452 1453 1453 1454 1455 1456 1457 1457 1457 1457 1458 1458 1458 1457 1457 1457 1457 1457 1457 1456 1456 1456 1455 1454 1454 1453 1453 1453 1452 1451 1451 1450 1449 1448 1448 1447 1446 1445 1444 1444 1443 1442 1441 1440 1439 1438 1438 1437 1436 1435 1433 1432 1430 1429 1428 1427 1425 1423 1421 1419
1438 1440 1441 1443 1443 1445 1446 1447 1448 1449 1450 1451 1452 1453 1453 1454 1454 1455 1455 1455 1455 1455 1455 1455 1455 1455 1455 1455 1454 1454 1453 1453 1453 1452 1452 1451 1451 1450 1450 1449 1448 1447 1447 1446 1445 1444 1443 1443 1442 1441 1440 1439 1438 1438 1437 1436 1435 1433 1432 1431 1429 1428 1427 1426 1424 1423 1421 1419 1418
1436 1438 1439 1440 1441 1443 1443 1445 1445 1446 1447 1448 1449 1450 1451 1451 1452 1452 1453 1453 1453 1453 1453 1453 1453 1453 1453 1453 1453 1452 1452 1451 1451 1450 1450 1449 1449 1448 1448 1447 1446 1445 1445 1444 1443 1443 1442 1441 1440 1439 1438 1438 1436 1436 1435 1434 1433 1431 1429 1428 1427 1427 1425 1424 1423 1421 1420 1418 1417
1434 1435 1436 1438 1438 1440 1441 1442 1443 1443 1444 1445 1447 1448 1448 1449 1449 1450 1450 1450 1450 1450 1450 1450 1451 1451 1451 1451 1450 1450 1449 1449 1449 1448 1448 1448 1447 1446 1446 1445 1444 1444 1443 1443 1442 1441 1440 1438 1438 1437 1436 1435 1434 1433 1433 1432 1431 1429 1428 1427 1426 1425 1424 1423 1422 1420 1419 1417 1416
1432 1433 1434 1435 1436 1437 1438 1438 1439 1440 1442 1443 1444 1445 1446 1446 1447 1447 1447 1448 1448 1448 1448 1448 1449 1449 1449 1448 1448 1448 1448 1447 1447 1447 1446 1446 1445 1445 1444 1443 1443 1442 1441 1441 1440 1439 1438 1437 1436 1435 1434 1433 1432 1432 1431 1430 1429 1428 1427 1427 1425 1424 1423 1422 1420 1419 1418 1416 1414
1429 1430 1431 1432 1433 1433 1434 1435 1436 1438 1439 1440 1441 1442 1443 1443 1444 1444 1445 1445 1446 1446 1446 1447 1447 1447 1447 1447 1446 1446 1446 1445 1445 1445 1444 1444 1443 1443 1442 1442 1441 1440 1440 1439 1438 1438 1437 1436 1435 1434 1433 1432 1431 1430 1429 1429 1428 1427 1427 1425 1424 1423 1421 1420 1419 1417 1416 1414 1413
1426 1427 1428 1428 1429 1430 1431 1432 1434 1435 1436 1438 1438 1439 1440 1441 1442 1442 1443 1443 1443 1444 1444 1444 1444 1445 1445 1444 1444 1444 1444 1443 1443 1443 1443 1442 1442 1441 1440 1440 1439 1438 1438 1438 1437 1436 1435 1434 1433 1433 1432 1431 1430 1429 1428 1427 1426 1426 1425 1424 1423 1421 1420 1418 1417 1415 1414 1412 1411
1423 1423 1424 1426 1426 1427 1428 1430 1431 1432 1433 1434 1435 1437 1438 1438 1439 1439 1440 1441 1441 1442 1442 1442 1442 1443 1443 1442 1442 1442 1442 1442 1442 1441 1441 1440 1440 1439 1438 1438 1438 1437 1436 1436 1435 1434 1433 1433 1432 1431 1430 1429 1428 1428 1427 1426 1426 1425 1424 1423 1421 1420 1419 1417 1415 1413 1412 1410 1408
1420 1421 1422 1422 1423 1424 1425 1426 1428 1429 1430 1432 1433 1434 1435 1435 1436 1437 1438 1438 1439 1439 1439 1440 1440 1440 1440 1440 1440 1440 1440 1440 1440 1439 1439 1438 1438 1437 1437 1436 1436 1435 1435 1434 1433 1433 1432 1431 1430 1429 1429 1428 1427 1426 1426 1425 1424 1423 1422 1421 1420 1418 1417 1415 1414 1412 1410 1408 1406
1417 1417 1418 1418 1419 1421 1422 1423 1424 1426 1428 1429 1430 1431 1432 1433 1433 1434 1435 1436 1436 1437 1438 1438 1438 1438 1438 1438 1438 1438 1438 1438 1438 1437 1437 1436 1436 1435 1435 1434 1434 1433 1433 1433 1432 1431 1430 1429 1428 1428 1427 1427 1426 1425 1424 1423 1423 1422 1421 1419 1418 1417 1415 1414 1412 1410 1408 1407 1404
1413 1414 1414 1415 1416 1417 1418 1420 1422 1423 1425 1426 1427 1428 1428 1430 1431 1432 1433 1433 1434 1435 1435 1436 1436 1436 1436 1436 1437 1436 1436 1436 1436 1435 1435 1434 1434 1433 1433 1433 1432 1432 1431 1431 1430 1429 1428 1428 1427 1426 1425 1425 1424 1423 1423 1422 1421 1420 1419 1418 1416 1415 1413 1412 1410 1409 1407 1405 1403
1410 1410 1411 1412 1413 1414 1416 1417 1419 1420 1422 1423 1423 1424 1426 1427 1428 1429 1430 1431 1432 1433 1433 1433 1434 1434 1434 1435 1435 1434 1434 1434 1434 1433 1433 1433 1432 1432 1431 1431 1430 1430 1429 1429 1428 1428 1427 1426 1425 1424 1424 1423 1423 1422 1421 1420 1419 1418 1417 1416 1415 1413 1412 1410 1409 1407 1405 1403 1402
1407 1407 1408 1408 1409 1411 1413 1414 1416 1417 1418 1419 1420 1422 1423 1424 1425 1427 1428 1429 1429 1430 1431 1432 1432 1433 1433 1433 1433 1433 1433 1432 1432 1432 1431 1431 1430 1430 1429 1429 1428 1428 1428 1427 1427 1426 1425 1424 1423 1423 1422 1421 1421 1420 1419 1418 1417 1416 1415 1414 1413 1412 1410 1408 1407 1405 1404 1402 1401
1403 1404 1404 1405 1407 1408 1410 1411 1413 1414 1415 1416 1417 1418 1420 1422 1423 1424 1425 1426 1427 1428 1429 1430 1430 1431 1431 1431 1431 1431 1431 1430 1430 1430 1429 1429 1428 1428 1427 1427 1427 1426 1426 1425 1425 1424 1423 1423 1422 1421 1420 1420 1419 1418 1417 1416 1415 1414 1414 1413 1411 1410 1408 1407 1405 1404 1402 1401 1399
1400 1401 1402 1403 1404 1405 1407 1408 1409 1410 1412 1413 1414 1416 1417 1419 1420 1421 1422 1423 1425 1426 1427 1428 1428 1429 1429 1429 1429 1429 1428 1428 1428 1428 1428 1427 1427 1426 1425 1425 1425 1425 1424 1423 1423 1422 1422 1421 1420 1419 1419 1418 1417 1416 1415 1414 1413 1413 1412 1411 1409 1408 1406 1405 1404 1402 1401 1400 1398
1398 1398 1399 1400 1401 1402 1403 1405 1406 1407 1408 1409 1411 1413 1414 1416 1417 1419 1420 1421 1422 1423 1424 1425 1426 1427 1427 1427 1427 1427 1427 1427 1427 1426 1426 1425 1425 1424 1423 1423 1423 1423 1423 1422 1421 1420 1420 1419 1418 1418 1417 1416 1415 1414 1413 1413 1412 1411 1411 1409 1408 1406 1405 1403 1402 1401 1400 1398 1397
1395 1396 1397 1398 1398 1399 1400 1402 1403 1404 1405 1406 1408 1410 1412 1413 1415 1416 1418 1419 1420 1421 1422 1423 1424 1424 1424 1425 1425 1425 1425 1425 1425 1424 1424 1423 1423 1422 1422 1421 1421 1421 1421 1420 1419 1418 1418 1417 1417 1416 1415 1414 1413 1412 1412 1411 1410 1410 1409 1408 1406 1405 1403 1402 1401 1400 1398 1397 1396
1393 1394 1395 1395 1396 1397 1398 1398 1399 1400 1402 1403 1406 1408 1409 1411 1413 1414 1415 1416 1418 1419 1420 1421 1422 1422 1423 1423 1423 1423 1423 1423 1423 1422 1422 1421 1421 1420 1420 1419 1419 1419 1419 1418 1418 1417 1416 1415 1415 1414 1413 1412 1411 1411 1410 1409 1409 1408 1408 1406 1405 1403 1402 1401 1400 1398 1397 1396 1395
1391 1392 1393 1393 1394 1394 1395 1396 1397 1398 1399 1402 1403 1405 1407 1408 1410 1411 1413 1414 1415 1417 1418 1418 1419 1420 1420 1421 1421 1421 1421 1421 1421 1420 1420 1419 1419 1419 1418 1418 1417 1417 1417 1416 1416 1415 1414 1414 1413 1413 1412 1411 1410 1409 1408 1408 1407 1407 1406 1404 1403 1402 1401 1400 1398 1397 1396 1395 1394
1389 1390 1391 1391 1392 1392 1393 1393 1394 1396 1398 1400 1401 1403 1405 1406 1408 1409 1411 1412 1413 1414 1415 1416 1417 1418 1418 1418 1418 1418 1419 1419 1418 1418 1418 1418 1418 1417 1416 1416 1415 1415 1415 1415 1414 1413 1413 1412 1411 1411 1410 1409 1408 1408 1407 1406 1405 1404 1403 1402 1401 1400 1399 1398 1397 1396 1394 1393 1392
1387 1388 1388 1389 1390 1390 1390 1391 1392 1394 1396 1398 1399 1401 1403 1404 1406 1407 1408 1410 1411 1412 1413 1414 1415 1415 1416 1416 1416 1416 1416 1417 1417 1417 1416 1416 1416 1415 1414 1414 1413 1413 1413 1413 1412 1411 1411 1410 1409 1409 1408 1407 1407 1406 1405 1404 1403 1402 1401 1400 1400 1399 1398 1397 1396 1394 1393 1392 1391
Wind_Speed
36 35 34 33 33 32 31 31 30 29 28 28 27 27 26 25 24 23 22 21 20 19 19 18 18 18 18 19 19 19 19 19 20 20 20 20 19 19 19 19 20 20 20 21 21 21 22 22 23 24 24 25 25 26 26 25 26 26 26 27 27 27 28 28 29 29 29 30 30
36 35 34 33 33 32 32 31 31 30 29 28 27 27 26 25 25 24 22 21 20 20 19 19 18 18 18 19 19 19 19 19 20 20 20 20 19 19 19 19 20 20 20 21 21 21 22 22 23 24 24 25 25 25 25 25 25 25 26 26 26 27 27 28 29 29 29 30 30
36 35 34 34 34 33 32 32 31 30 29 28 27 27 26 26 25 24 23 21 20 20 19 19 18 18 18 19 19 19 19 19 20 20 20 19 19 19 19 19 19 20 20 20 21 21 21 22 23 24 24 25 25 25 25 24 24 24 25 25 26 26 27 28 29 29 29 30 30
36 35 35 34 34 33 32 31 30 30 29 28 27 27 27 26 25 24 23 22 21 20 19 18 18 19 19 19 19 19 19 19 20 20 20 19 19 19 19 19 19 20 20 20 21 21 21 22 23 24 24 25 25 25 24 24 23 24 24 25 25 26 27 28 29 29 30 30 30
36 36 35 34 34 33 32 31 30 30 29 28 28 28 27 27 26 24 23 22 21 20 19 18 19 19 19 19 19 19 19 19 20 20 20 19 19 19 19 19 19 20 20 20 20 21 22 22 23 24 24 24 24 24 24 23 23 24 24 25 25 26 28 29 29 30 30 31 31
36 35 35 34 33 33 32 31 30 30 29 29 29 29 28 27 26 25 23 22 21 20 19 19 19 19 19 19 19 19 19 19 20 20 20 19 19 19 19 19 19 19 20 20 20 21 22 23 23 24 24 24 24 24 23 23 23 24 24 25 25 26 28 29 30 30 31 31 31
35 35 35 34 33 33 32 31 31 30 30 30 30 30 29 27 26 24 23 22 21 20 20 19 19 19 19 19 19 19 19 20 20 20 20 19 19 19 19 19 19 19 20 20 20 21 22 23 24 24 24 24 24 24 23 23 23 24 25 25 26 26 28 29 30 31 31 32 31
35 35 35 34 34 33 32 32 31 31 31 31 31 30 29 27 26 24 23 23 22 21 20 20 19 19 19 19 19 19 19 20 20 20 20 19 19 19 19 19 19 19 19 20 20 21 22 23 24 24 24 24 24 24 23 23 23 24 25 25 26 27 28 29 30 31 32 32 33
36 35 35 34 34 34 33 33 32 32 32 32 31 30 28 27 26 25 24 23 22 21 20 20 20 19 19 20 19 19 20 20 20 20 20 19 19 19 19 19 19 19 19 20 20 21 22 23 24 24 24 24 25 24 24 24 24 24 25 26 26 27 28 29 30 31 32 33 34
36 35 35 35 34 34 34 33 33 33 33 33 31 30 29 27 26 26 24 23 22 21 21 20 20 20 20 20 19 19 20 20 20 20 20 20 19 19 19 19 19 19 20 20 21 22 22 23 24 24 24 24 25 25 24 24 24 25 26 26 27 28 28 29 29 31 32 33 34
35 35 35 35 35 34 34 35 35 34 34 33 32 30 29 28 27 26 24 23 23 22 21 20 20 20 20 20 20 19 20 20 20 20 20 20 19 19 19 19 19 20 20 20 21 22 23 24 24 25 25 24 25 25 25 25 25 25 26 26 27 28 28 28 29 30 31 33 34
34 35 35 35 35 35 35 36 36 35 34 33 32 31 29 28 27 25 25 24 23 23 21 20 20 20 20 20 20 20 20 20 21 21 20 20 19 19 19 19 19 20 20 21 21 22 23 24 25 25 25 25 25 25 25 25 25 26 26 26 27 27 28 28 29 30 31 33 34
34 35 35 35 36 36 36 37 36 36 35 34 32 31 30 28 27 26 25 25 24 23 21 20 20 20 20 20 20 20 20 21 21 21 20 20 19 19 19 19 19 20 20 21 22 23 23 24 25 25 26 26 25 25 25 25 25 26 26 27 27 27 28 29 30 31 31 32 31
34 35 36 36 37 37 37 38 37 37 35 34 33 31 30 28 27 26 26 25 24 23 21 21 21 20 20 20 20 20 20 21 21 21 21 20 19 19 19 19 20 20 21 21 22 23 24 25 25 26 26 26 26 25 25 25 25 26 26 27 27 28 28 29 30 30 30 30 29
34 35 36 37 38 38 38 38 38 37 36 35 33 31 30 28 27 26 26 25 24 23 22 21 21 20 20 20 20 20 21 21 21 21 21 20 19 19 19 19 20 20 21 21 22 23 24 25 25 26 26 27 26 26 25 25 26 26 27 27 28 28 29 30 30 30 29 28 28
35 36 37 38 38 39 39 39 38 37 36 35 33 31 30 28 27 27 26 25 24 23 22 22 21 20 20 20 21 21 21 21 21 21 20 20 19 19 19 20 20 21 21 22 23 23 24 24 25 26 26 27 27 26 26 26 26 26 27 27 28 29 30 30 29 28 27 27 27
36 36 37 38 39 39 40 39 39 38 36 34 33 31 30 28 27 27 26 26 25 24 23 22 21 20 20 21 21 21 21 21 21 21 20 20 19 19 20 20 20 21 21 22 23 23 24 24 25 25 26 27 27 26 26 26 26 26 27 27 28 29 29 29 28 27 26 26 27
36 37 38 39 39 40 39 39 38 37 36 34 33 31 29 28 27 27 27 26 25 24 23 22 21 21 21 21 21 21 22 21 21 21 20 20 20 20 20 20 20 21 22 22 23 24 24 24 25 25 26 26 26 26 26 26 26 27 27 27 28 28 28 28 26 25 25 26 26
36 37 38 39 39 39 39 39 38 37 36 34 32 31 29 28 27 27 27 26 25 24 23 22 22 22 22 22 22 22 22 21 21 21 20 20 20 20 20 20 21 21 22 23 23 24 24 24 25 25 26 26 26 26 26 26 26 27 27 27 28 28 28 27 25 25 25 25 26
36 37 38 38 38 38 38 38 38 37 35 34 32 31 29 28 28 28 27 27 25 24 23 22 22 22 22 22 22 22 21 21 21 21 21 20 20 20 20 21 21 22 22 23 23 23 24 24 25 25 25 25 26 26 26 26 26 26 26 27 28 28 27 26 25 24 25 25 26
36 37 37 37 37 37 38 38 37 36 35 34 32 31 29 29 28 28 28 27 25 24 24 23 23 23 22 22 22 22 21 21 22 21 21 21 21 21 21 21 22 22 22 23 23 23 24 24 24 25 25 25 25 25 26 25 25 24 25 27 28 28 27 25 24 24 25 26 27
36 36 36 36 36 37 37 37 37 37 36 34 33 31 30 29 29 29 28 27 26 25 25 24 23 23 22 22 22 22 21 22 22 22 21 21 21 21 21 21 22 22 23 23 23 23 23 24 24 24 24 25 25 25 24 23 23 23 25 28 29 28 26 25 24 25 26 27 27
35 35 35 35 36 36 37 37 37 37 36 35 33 31 30 30 30 29 28 27 27 26 25 24 24 23 22 22 22 22 22 22 22 22 22 21 21 21 21 22 22 23 23 23 23 23 24 24 23 23 24 24 24 23 22 21 21 24 27 29 29 28 26 25 25 26 26 27 27
33 34 35 35 36 36 37 37 38 37 36 35 33 32 31 31 30 30 29 28 27 26 25 24 24 23 22 22 22 22 22 22 22 22 22 21 21 22 22 22 23 23 23 23 23 23 23 24 23 23 23 23 23 22 21 20 22 25 28 29 28 26 25 26 26 27 26 26 26
33 34 35 35 36 37 37 38 38 38 37 35 34 33 32 31 31 30 29 28 27 26 25 24 24 23 23 23 23 23 23 22 22 22 22 22 22 22 22 23 23 23 23 23 23 23 23 23 23 23 23 23 22 21 20 20 22 25 28 28 27 26 27 28 28 27 27 26 26
32 34 35 36 36 37 38 38 38 37 36 35 34 33 33 32 32 31 30 28 27 26 25 24 24 23 23 23 23 23 23 23 22 22 22 22 22 22 22 23 23 23 23 23 22 22 22 22 22 21 21 21 21 21 20 20 22 26 28 28 28 29 30 30 30 28 27 27 27
32 34 35 36 36 37 38 38 38 37 37 36 35 34 33 33 32 31 30 29 27 26 25 25 24 23 23 23 23 23 23 23 22 22 22 22 22 22 22 23 23 23 23 22 22 22 21 21 21 20 20 20 20 19 19 19 23 26 29 30 30 31 31 31 30 29 28 28 27
32 33 35 36 37 38 38 38 38 38 37 36 36 35 34 33 32 31 30 29 28 27 26 25 24 23 23 24 24 23 23 23 22 22 23 23 23 23 23 22 23 23 22 22 22 21 20 20 20 20 19 19 19 18 17 19 23 26 29 30 31 32 32 31 29 29 28 28 28
32 33 34 36 37 38 38 38 38 38 37 37 36 35 34 34 33 32 30 29 28 27 26 25 24 23 23 24 24 24 23 23 23 23 23 23 23 23 23 23 23 23 22 22 21 20 20 20 20 19 19 18 18 17 17 19 22 25 28 29 31 32 32 30 29 28 28 28 28
31 33 35 36 37 38 38 38 38 38 37 37 36 36 35 34 33 32 31 30 29 27 26 24 24 23 24 24 24 24 24 23 23 23 23 24 24 23 23 23 23 23 22 22 21 20 19 19 19 19 19 18 17 16 16 18 21 23 26 28 30 31 31 29 28 27 27 27 27
31 32 34 36 37 38 38 38 38 37 37 37 37 36 36 35 34 32 31 30 28 27 25 24 24 24 24 24 24 24 24 23 23 23 24 24 24 24 23 23 23 23 22 21 21 20 19 19 19 19 19 18 16 16 16 18 20 22 25 28 30 30 29 27 27 27 27 27 27
31 32 34 36 37 38 38 38 38 38 38 38 38 37 36 35 34 32 31 30 28 26 25 24 24 24 24 23 24 24 24 24 24 24 24 24 24 24 24 23 23 22 22 21 20 19 19 19 19 19 19 18 16 16 17 18 19 21 24 27 29 28 27 26 27 27 27 27 26
31 32 33 35 37 37 38 38 38 38 38 38 38 37 36 35 34 32 31 30 28 27 25 24 24 23 23 23 24 24 25 25 24 24 24 24 24 24 24 23 23 22 22 21 20 19 19 19 19 19 18 17 17 17 17 18 18 20 23 26 27 27 26 26 27 28 28 27 26
32 32 33 34 36 37 37 38 38 39 39 39 39 38 37 35 34 33 32 30 28 26 24 23 23 23 23 24 24 25 25 25 25 24 24 24 24 25 24 23 23 22 22 21 20 19 19 18 18 18 18 17 17 17 17 17 17 20 23 25 26 26 26 27 28 28 28 28 27
32 32 32 34 35 37 38 38 39 39 40 40 39 38 37 36 35 33 32 30 28 25 23 22 23 23 24 24 25 26 26 25 24 24 24 24 25 25 24 23 23 22 22 22 21 20 19 18 18 18 18 18 18 18 17 16 17 20 23 24 25 25 27 27 28 29 29 28 27
33 32 32 33 34 36 38 39 39 40 40 40 40 39 37 36 35 33 32 30 28 25 23 22 23 23 24 25 25 26 26 25 24 24 24 25 25 25 25 24 23 22 22 22 21 20 19 18 18 18 18 18 19 19 18 16 17 20 22 24 25 26 27 28 29 29 29 29 28
34 33 32 32 33 35 37 39 40 40 41 41 40 39 37 36 35 33 32 30 27 25 23 22 23 24 24 24 25 25 26 25 25 25 25 25 25 25 25 24 23 22 22 22 21 20 19 18 18 18 18 19 19 19 18 16 17 19 22 23 24 26 27 29 30 30 30 29 28
35 34 32 32 33 35 37 39 40 41 41 41 40 39 37 36 35 34 32 30 27 24 22 23 23 24 24 24 24 25 26 26 26 26 25 25 25 25 25 24 23 22 22 21 21 20 19 18 18 18 18 19 19 19 18 17 16 18 21 23 24 25 27 28 30 30 31 30 28
37 35 33 32 33 34 36 38 40 41 41 40 39 38 37 36 35 34 32 29 26 23 22 23 24 24 24 24 25 26 26 27 27 26 26 25 25 25 25 24 23 22 21 21 21 20 19 18 18 18 18 19 19 20 19 17 17 18 20 22 24 25 26 28 29 30 31 30 28
37 36 34 33 33 34 36 38 39 40 40 40 39 38 37 36 35 33 31 28 25 23 23 24 24 24 24 24 25 26 27 28 27 27 26 25 25 25 25 25 24 22 21 21 21 20 19 18 18 17 18 19 20 20 19 18 18 20 22 24 24 25 26 27 28 30 31 31 29
37 36 35 34 33 34 35 37 38 39 39 39 39 38 37 35 34 33 31 27 24 23 24 25 25 25 25 25 25 26 27 28 27 26 25 25 25 25 25 25 24 22 21 21 21 20 20 19 18 18 18 19 19 19 19 19 20 22 24 25 24 24 25 26 28 30 32 31 29
Wind_Direction
249 249 249 249 249 249 250 251 253 254 255 255 255 255 256 257 258 260 262 264 267 270 273 275 278 279 281 281 282 283 284 285 285 286 287 288 289 290 291 292 293 294 295 296 297 298 299 300 300 300 301 302 303 304 305 305 305 303 302 300 299 298 297 296 296 296 296 296 295
249 249 249 249 248 248 249 250 252 253 254 254 255 255 255 257 258 260 262 264 267 269 272 274 277 279 280 281 281 282 283 284 285 285 286 287 289 290 291 292 293 294 295 296 297 298 299 300 300 300 301 303 304 305 305 306 305 303 301 300 299 298 297 297 298 298 299 299 299
249 248 248 248 248 248 248 249 251 253 254 255 255 254 255 256 257 259 261 263 266 268 271 274 276 278 279 280 281 281 283 283 284 285 286 287 288 289 290 291 292 293 294 295 297 298 299 299 300 301 302 303 304 305 306 306 305 303 301 300 299 299 298 299 300 301 302 302 302
248 248 247 247 247 248 248 250 252 254 255 255 255 254 254 255 256 258 260 262 265 267 271 274 276 277 278 279 280 281 282 283 284 285 286 287 288 289 289 290 291 293 294 295 296 298 299 299 300 301 302 304 304 305 306 306 304 302 301 300 300 300 300 301 302 303 304 304 305
248 247 247 248 248 249 249 250 252 254 254 254 253 252 253 254 255 257 259 262 264 267 271 273 274 276 277 278 280 281 282 283 284 285 286 287 288 288 289 289 291 292 293 295 296 298 299 299 300 301 302 303 304 305 305 305 304 302 301 300 301 301 301 302 303 304 305 305 306
248 248 248 248 248 248 249 250 251 252 252 252 251 251 252 254 255 257 259 261 264 267 269 271 273 274 276 278 279 281 282 283 283 285 286 287 287 288 288 289 291 292 294 295 297 298 299 299 299 300 302 303 303 304 305 304 303 302 301 301 302 302 303 303 304 305 306 306 307
249 248 248 248 248 248 248 249 250 250 250 250 250 251 252 254 255 257 259 261 263 265 267 269 271 273 275 277 278 280 281 282 283 284 285 286 287 288 289 290 291 292 294 296 297 297 298 298 299 300 301 302 303 304 304 303 302 302 302 302 303 303 304 305 306 307 307 308 308
248 247 247 247 247 248 248 249 249 249 249 249 250 251 253 254 255 256 258 260 262 264 266 268 270 272 274 276 277 279 281 282 283 283 284 285 286 287 288 290 291 293 294 295 296 296 297 297 298 299 301 302 302 303 303 303 302 302 303 304 304 305 305 306 307 308 309 309 309
247 246 246 246 246 247 247 248 248 248 249 250 251 252 252 253 254 255 256 259 261 264 265 267 269 271 273 275 277 279 280 281 282 282 283 284 285 287 289 290 292 293 294 294 295 295 295 296 297 299 300 301 302 303 303 304 303 304 305 305 306 307 307 308 309 310 310 310 309
246 245 244 244 245 245 246 247 247 248 248 249 250 251 251 251 252 254 256 259 261 262 264 266 268 270 272 273 276 277 279 280 281 282 282 283 285 287 289 290 292 293 294 294 293 293 294 295 296 298 300 301 301 302 303 304 304 305 306 307 308 309 309 310 310 311 311 311 310
245 244 244 244 245 245 245 246 246 247 248 249 250 250 250 250 251 253 255 258 259 261 263 265 267 268 270 273 275 276 278 279 280 281 282 283 285 287 289 290 292 293 293 293 293 292 293 294 296 297 299 300 300 301 302 303 304 306 307 309 309 310 310 311 312 312 312 312 311
244 244 244 244 244 245 245 245 246 247 248 249 249 250 249 250 251 252 254 256 258 260 263 264 265 267 269 271 273 275 276 277 279 280 282 283 285 286 288 290 291 292 293 292 292 292 292 293 295 296 298 298 299 300 301 303 304 306 307 309 309 310 310 311 313 313 313 313 313
244 243 242 243 243 244 244 245 246 246 247 248 249 249 249 249 250 251 253 255 257 260 262 263 264 266 268 270 272 274 275 276 278 279 281 283 285 287 288 289 290 291 292 292 291 291 291 292 294 295 296 297 298 299 300 302 303 305 307 308 309 310 311 312 313 314 315 314 313
244 242 241 241 242 242 243 244 245 246 247 248 249 249 249 249 249 250 252 254 257 259 260 261 263 265 267 269 271 272 273 275 277 279 281 283 285 287 288 289 290 290 291 291 291 290 291 291 293 293 295 296 297 298 299 301 302 304 306 308 309 310 311 313 314 315 315 315 313
243 242 241 241 241 242 242 243 244 245 246 247 248 249 249 248 248 249 251 254 256 258 259 261 262 264 267 268 269 271 272 274 276 279 281 283 285 286 288 289 289 290 290 290 290 290 290 291 291 292 293 294 295 297 299 300 302 304 305 307 309 310 312 314 316 316 316 314 312
243 241 240 240 240 241 242 242 243 244 246 247 248 248 248 248 248 249 251 253 255 257 259 260 262 264 266 267 268 270 271 273 276 278 281 283 285 286 287 288 288 289 289 289 289 289 289 290 291 291 292 293 295 296 298 300 302 303 305 307 308 311 313 315 316 316 315 313 311
242 241 240 240 240 240 241 242 243 244 245 247 248 248 248 247 247 248 250 253 255 257 259 261 263 264 265 266 267 269 271 273 276 278 281 283 285 286 286 287 287 288 288 289 289 289 290 290 290 291 291 292 294 296 298 300 302 304 305 307 309 312 315 316 316 315 313 312 311
243 241 240 240 240 240 241 241 242 243 245 247 248 248 247 247 247 248 250 252 254 257 259 260 262 263 264 265 266 268 270 273 275 278 281 283 284 285 286 286 287 287 288 288 289 290 290 290 290 291 291 292 294 296 298 300 302 303 305 307 311 314 317 317 315 313 312 313 313
243 242 241 240 240 240 240 241 242 243 245 246 247 247 246 246 246 247 249 251 254 256 258 260 261 262 263 264 266 268 270 272 275 278 280 282 283 284 285 286 286 287 287 288 289 290 291 291 291 291 292 292 294 295 297 299 301 303 306 309 314 317 318 316 313 313 314 315 316
244 243 242 241 241 240 240 240 241 243 245 246 247 246 245 245 245 246 248 251 253 256 257 259 260 261 262 264 265 267 270 272 275 277 279 281 283 284 285 285 286 286 287 288 289 290 291 291 292 292 292 293 294 295 296 298 300 303 308 313 318 319 317 314 313 315 318 320 321
245 244 243 242 242 241 241 241 241 243 244 245 246 245 244 244 244 246 248 250 253 254 256 257 258 260 261 263 265 267 269 272 274 277 279 281 282 283 284 284 285 286 288 289 290 291 291 292 292 293 293 293 293 294 295 297 301 306 313 318 320 318 315 312 314 318 323 325 326
247 245 244 243 242 241 241 241 241 242 243 244 245 244 244 243 244 245 247 250 251 253 254 256 258 259 261 263 265 267 269 271 273 276 279 280 282 283 283 284 285 286 288 289 291 292 292 292 292 293 292 292 292 292 294 298 305 313 319 321 320 315 312 312 317 322 326 327 328
248 246 244 243 242 241 240 240 240 241 242 243 244 243 242 242 243 245 246 248 250 252 253 255 257 259 261 263 264 266 268 270 273 275 278 280 282 282 283 283 284 286 288 291 292 292 293 293 293 292 291 290 290 292 296 304 313 320 322 321 316 311 309 314 319 323 326 327 328
249 246 244 243 241 240 239 239 239 240 241 242 242 242 242 242 243 244 246 247 249 251 253 255 257 259 260 262 263 265 267 270 272 275 277 279 281 282 282 283 284 286 289 291 293 293 293 294 294 293 291 291 293 296 302 311 319 323 321 315 309 306 308 314 318 321 324 325 326
250 247 244 242 241 240 239 238 239 239 240 241 242 242 241 241 242 243 245 247 249 250 252 254 256 258 259 261 263 265 267 270 273 275 277 278 280 281 282 283 285 287 290 292 293 293 293 293 293 293 294 295 298 301 305 313 320 320 316 309 304 305 309 313 315 318 321 323 323
250 246 243 242 241 239 239 238 238 239 240 241 241 241 241 241 242 243 245 246 248 250 252 254 255 257 258 260 262 265 267 270 272 275 277 278 279 280 281 283 285 288 290 292 293 293 293 292 291 292 293 295 296 298 303 312 318 316 310 305 305 308 310 311 313 316 320 322 322
250 246 243 242 240 239 239 238 238 238 239 239 240 240 240 241 241 243 244 246 247 249 251 252 254 256 258 260 262 264 267 270 272 275 276 278 279 280 281 283 285 288 290 292 293 293 291 290 288 288 288 289 291 295 302 312 315 311 306 305 307 308 309 309 312 316 319 321 322
251 247 243 241 240 239 238 238 237 237 237 238 239 240 240 240 241 242 243 245 246 248 249 251 253 255 258 260 262 264 267 269 271 273 275 277 278 280 282 284 286 288 291 293 293 292 290 287 285 284 284 286 289 294 303 310 310 307 305 306 307 307 307 308 312 316 320 321 322
253 248 244 241 240 239 238 237 236 236 237 237 238 239 240 240 240 241 242 243 245 247 248 251 253 255 257 259 262 264 267 269 271 272 274 276 277 280 282 285 287 289 291 292 292 291 288 285 282 281 282 284 288 294 301 306 305 304 304 305 306 305 305 308 312 317 320 321 322
254 248 244 241 240 239 238 237 236 236 236 237 237 238 239 239 239 240 241 242 244 246 248 251 252 254 256 259 261 264 266 268 270 272 273 275 277 279 282 284 287 289 291 292 291 289 286 282 280 280 281 283 286 292 297 300 301 302 303 303 303 303 304 309 314 319 321 322 323
255 249 244 242 240 238 238 237 236 235 235 236 236 237 238 238 239 239 240 242 243 245 248 250 251 253 255 258 261 263 266 268 269 271 272 274 277 279 281 284 286 289 291 291 290 287 284 280 279 279 280 282 285 289 292 294 295 298 300 301 301 302 305 311 317 321 322 323 323
256 250 245 242 239 238 237 236 235 234 234 235 236 236 237 238 238 239 240 241 242 244 246 248 251 253 256 259 262 264 266 267 268 270 272 274 276 278 280 283 286 288 290 291 289 286 282 279 277 277 279 281 283 286 287 288 291 296 299 300 300 303 308 314 320 323 324 324 324
256 251 246 242 239 238 236 235 234 233 233 234 235 236 237 237 238 238 239 240 241 242 244 247 250 254 257 259 262 264 266 267 268 270 271 273 275 277 280 282 286 288 290 290 288 285 281 278 277 277 278 280 282 282 283 284 291 297 300 300 301 305 312 318 323 325 326 326 325
256 251 247 242 239 237 236 234 233 232 232 233 234 235 236 236 237 237 237 238 239 241 244 247 250 253 256 259 261 263 264 266 267 269 271 273 274 276 279 282 286 288 289 289 287 284 281 278 276 276 277 279 279 278 279 284 294 301 302 301 303 309 316 321 325 327 327 326 325
257 252 247 243 240 237 235 233 232 232 231 232 233 234 235 235 236 236 236 237 238 240 242 246 249 252 255 258 260 262 264 265 267 269 271 272 274 276 278 282 285 288 288 288 287 285 282 278 276 275 276 276 276 276 278 285 297 302 303 303 308 314 320 323 325 326 326 326 325
259 254 249 244 240 237 235 233 232 231 230 231 231 233 234 234 235 235 236 236 236 237 240 244 247 251 254 258 261 264 266 267 268 269 270 271 273 275 278 282 285 286 287 288 287 286 282 279 276 274 274 274 274 275 278 285 297 303 304 307 314 319 323 324 324 324 325 325 324
261 256 251 245 241 237 235 233 231 230 230 230 230 232 233 234 234 234 234 234 234 235 237 242 246 250 254 259 263 265 267 268 268 268 269 270 272 275 278 281 284 286 287 287 287 286 283 280 276 273 272 272 273 273 276 282 294 302 307 311 317 321 323 323 322 322 322 323 323
263 258 253 247 242 238 235 233 231 230 229 229 230 231 232 233 234 234 233 233 232 233 236 240 245 250 254 259 263 265 266 266 266 267 268 270 272 275 278 280 283 285 286 287 288 287 285 281 276 273 271 270 271 271 273 278 290 300 307 311 314 317 318 319 319 318 319 320 321
265 261 255 249 244 239 236 234 232 231 230 229 230 231 232 233 233 233 233 232 231 231 235 240 245 249 254 258 261 263 264 265 265 266 268 270 272 275 277 279 282 284 286 287 288 288 287 283 277 272 269 268 268 269 271 274 283 293 298 301 304 308 312 315 315 314 314 315 317
269 264 258 252 246 241 237 235 233 231 230 229 230 230 231 232 233 233 232 230 229 230 234 240 244 248 253 256 259 262 263 264 265 266 268 270 272 274 276 278 281 284 286 287 288 289 289 286 279 273 268 266 266 267 269 273 279 284 286 288 294 302 309 312 311 309 309 311 313
272 267 261 255 249 244 239 236 233 231 230 229 230 230 231 232 232 232 230 228 227 228 233 239 243 247 251 255 258 261 263 264 265 266 268 270 272 273 275 278 280 283 285 287 289 291 291 289 283 276 269 266 265 266 269 275 279 280 281 285 294 304 309 309 307 305 305 308 311